Time,TemperatureF,DewpointF,PressureIn,WindDirection,WindDirectionDegrees,WindSpeedMPH,WindSpeedGustMPH,Humidity,HourlyPrecipIn,Conditions,Clouds,dailyrainin,SoftwareType,DateUTC
2013-07-12 00:01:00,76.0,67.9,29.85,ENE,68,0.0,0.0,76,0.00,,BKN260,0.00,VWS V14.01,2013-07-12 04:01:00,
2013-07-12 00:06:00,75.9,67.8,29.86,ENE,68,0.0,0.0,76,0.00,,BKN260,0.00,VWS V14.01,2013-07-12 04:06:00,
2013-07-12 00:11:00,75.9,67.8,29.85,ENE,68,0.0,0.0,76,0.00,,BKN260,0.00,VWS V14.01,2013-07-12 04:11:00,
2013-07-12 00:16:00,75.8,67.7,29.86,ENE,68,0.0,0.0,76,0.00,,BKN260,0.00,VWS V14.01,2013-07-12 04:16:00,
2013-07-12 00:21:00,75.7,67.6,29.86,ENE,68,0.0,0.0,76,0.00,,BKN260,0.00,VWS V14.01,2013-07-12 04:21:00,
2013-07-12 00:26:00,75.8,67.7,29.86,ENE,68,0.0,0.0,76,0.00,,BKN260,0.00,VWS V14.01,2013-07-12 04:26:00,
2013-07-12 00:31:00,75.8,67.3,29.86,ENE,68,0.0,0.0,75,0.00,,BKN260,0.00,VWS V14.01,2013-07-12 04:31:00,
2013-07-12 00:36:00,75.6,67.5,29.86,ENE,68,0.0,1.0,76,0.00,,BKN260,0.00,VWS V14.01,2013-07-12 04:36:00,
2013-07-12 00:41:00,75.4,66.9,29.85,ENE,68,0.0,0.0,75,0.00,,BKN260,0.00,VWS V14.01,2013-07-12 04:41:00,
2013-07-12 00:46:00,75.4,67.3,29.85,ENE,68,0.0,0.0,76,0.00,,BKN260,0.00,VWS V14.01,2013-07-12 04:46:00,
2013-07-12 00:51:00,75.3,67.2,29.85,ENE,68,0.0,0.0,76,0.00,,BKN260,0.00,VWS V14.01,2013-07-12 04:51:00,
2013-07-12 00:56:00,75.3,67.2,29.85,ENE,68,0.0,0.0,76,0.00,,BKN260,0.00,VWS V14.01,2013-07-12 04:56:00,
2013-07-12 01:01:00,75.1,67.4,29.86,ENE,68,0.0,0.0,77,0.00,,OVC240,0.00,VWS V14.01,2013-07-12 05:01:00,
2013-07-12 01:06:00,74.9,66.8,29.86,NE,55,3.0,3.0,76,0.00,,OVC240,0.00,VWS V14.01,2013-07-12 05:06:00,
2013-07-12 01:11:00,74.9,67.2,29.86,NE,55,0.0,0.0,77,0.00,,OVC240,0.00,VWS V14.01,2013-07-12 05:11:00,
2013-07-12 01:16:00,74.9,67.2,29.87,NE,55,0.0,0.0,77,0.00,,OVC240,0.00,VWS V14.01,2013-07-12 05:16:00,
2013-07-12 01:21:00,74.9,67.2,29.86,NE,54,0.0,0.0,77,0.00,,OVC240,0.00,VWS V14.01,2013-07-12 05:21:00,
2013-07-12 01:26:00,74.9,67.2,29.86,NE,55,0.0,0.0,77,0.00,,OVC240,0.00,VWS V14.01,2013-07-12 05:26:00,
2013-07-12 01:31:00,74.9,66.8,29.86,NE,55,0.0,0.0,76,0.00,,OVC240,0.00,VWS V14.01,2013-07-12 05:31:00,
2013-07-12 01:36:00,74.8,66.3,29.86,NE,55,0.0,1.0,75,0.00,,OVC240,0.00,VWS V14.01,2013-07-12 05:36:00,
2013-07-12 01:41:00,74.7,66.3,29.86,NE,54,2.0,3.0,75,0.00,,OVC240,0.00,VWS V14.01,2013-07-12 05:41:00,
2013-07-12 01:46:00,74.6,65.8,29.86,NE,39,0.0,4.0,74,0.00,,OVC240,0.00,VWS V14.01,2013-07-12 05:46:00,
2013-07-12 01:51:00,74.6,66.2,29.87,NE,40,0.0,0.0,75,0.00,,OVC240,0.00,VWS V14.01,2013-07-12 05:51:00,
2013-07-12 01:56:00,74.6,66.2,29.86,NNE,27,0.0,3.0,75,0.00,,OVC240,0.00,VWS V14.01,2013-07-12 05:56:00,
2013-07-12 02:01:00,74.6,66.2,29.87,NNE,28,0.0,0.0,75,0.00,,OVC240,0.00,VWS V14.01,2013-07-12 06:01:00,
2013-07-12 02:06:00,74.5,66.1,29.87,NNE,28,0.0,1.0,75,0.00,,OVC240,0.00,VWS V14.01,2013-07-12 06:06:00,
2013-07-12 02:11:00,74.5,66.1,29.86,NNE,27,0.0,0.0,75,0.00,,OVC240,0.00,VWS V14.01,2013-07-12 06:11:00,
2013-07-12 02:16:00,74.5,66.1,29.86,NNE,27,0.0,0.0,75,0.00,,OVC240,0.00,VWS V14.01,2013-07-12 06:16:00,
2013-07-12 02:21:00,74.5,66.1,29.86,NNE,27,0.0,1.0,75,0.00,,OVC240,0.00,VWS V14.01,2013-07-12 06:21:00,
2013-07-12 02:26:00,74.5,66.1,29.86,NE,45,4.0,4.0,75,0.00,,OVC240,0.00,VWS V14.01,2013-07-12 06:26:00,
2013-07-12 02:31:00,74.3,65.9,29.86,ENE,68,0.0,0.0,75,0.00,,OVC240,0.00,VWS V14.01,2013-07-12 06:31:00,
2013-07-12 02:36:00,74.3,66.2,29.87,ENE,68,0.0,3.0,76,0.00,,OVC240,0.00,VWS V14.01,2013-07-12 06:36:00,
2013-07-12 02:41:00,74.2,66.2,29.87,ENE,68,0.0,0.0,76,0.00,,OVC240,0.00,VWS V14.01,2013-07-12 06:41:00,
2013-07-12 02:46:00,74.2,66.1,29.86,ENE,69,0.0,1.0,76,0.00,,OVC240,0.00,VWS V14.01,2013-07-12 06:46:00,
2013-07-12 02:51:00,74.1,66.1,29.86,ENE,68,0.0,0.0,76,0.00,,OVC240,0.00,VWS V14.01,2013-07-12 06:51:00,
2013-07-12 02:56:00,74.0,65.6,29.87,ENE,72,0.0,3.0,75,0.00,,OVC240,0.00,VWS V14.01,2013-07-12 06:56:00,
2013-07-12 03:01:00,74.0,66.0,29.86,ENE,62,1.0,1.0,76,0.00,,OVC240,0.00,VWS V14.01,2013-07-12 07:01:00,
2013-07-12 03:06:00,73.9,65.9,29.86,ENE,62,0.0,3.0,76,0.00,,OVC240,0.00,VWS V14.01,2013-07-12 07:06:00,
2013-07-12 03:11:00,73.9,65.9,29.86,ENE,63,0.0,0.0,76,0.00,,OVC240,0.00,VWS V14.01,2013-07-12 07:11:00,
2013-07-12 03:16:00,73.9,65.9,29.87,ENE,64,0.0,1.0,76,0.00,,OVC240,0.00,VWS V14.01,2013-07-12 07:16:00,
2013-07-12 03:21:00,73.9,65.9,29.86,ENE,63,0.0,0.0,76,0.00,,OVC240,0.00,VWS V14.01,2013-07-12 07:21:00,
2013-07-12 03:26:00,73.8,65.8,29.86,ENE,72,3.0,3.0,76,0.00,,OVC240,0.00,VWS V14.01,2013-07-12 07:26:00,
2013-07-12 03:31:00,73.8,65.8,29.87,NE,55,2.0,5.0,76,0.00,,OVC240,0.00,VWS V14.01,2013-07-12 07:31:00,
2013-07-12 03:36:00,73.7,65.8,29.87,East,79,2.0,5.0,76,0.00,,OVC240,0.00,VWS V14.01,2013-07-12 07:36:00,
2013-07-12 03:41:00,73.8,65.8,29.87,ENE,70,0.0,0.0,76,0.00,,OVC240,0.00,VWS V14.01,2013-07-12 07:41:00,
2013-07-12 03:46:00,73.8,65.8,29.88,ENE,70,0.0,5.0,76,0.00,,OVC240,0.00,VWS V14.01,2013-07-12 07:46:00,
2013-07-12 03:51:00,73.8,65.7,29.87,ENE,59,0.0,2.0,76,0.00,,OVC240,0.00,VWS V14.01,2013-07-12 07:51:00,
2013-07-12 03:56:00,73.8,65.8,29.87,East,85,0.0,6.0,76,0.00,,OVC240,0.00,VWS V14.01,2013-07-12 07:56:00,
2013-07-12 04:01:00,73.8,65.7,29.88,SE,136,0.0,0.0,76,0.00,,OVC240,0.00,VWS V14.01,2013-07-12 08:01:00,
2013-07-12 04:06:00,73.8,65.8,29.88,SE,135,0.0,1.0,76,0.00,,OVC240,0.00,VWS V14.01,2013-07-12 08:06:00,
2013-07-12 04:11:00,73.7,65.7,29.88,ENE,67,0.0,2.0,76,0.00,,OVC240,0.00,VWS V14.01,2013-07-12 08:11:00,
2013-07-12 04:16:00,73.6,65.9,29.88,ENE,66,0.0,2.0,77,0.00,,OVC240,0.00,VWS V14.01,2013-07-12 08:16:00,
2013-07-12 04:21:00,73.6,65.9,29.88,East,84,1.0,1.0,77,0.00,,OVC240,0.00,VWS V14.01,2013-07-12 08:21:00,
2013-07-12 04:26:00,73.5,65.9,29.88,ENE,58,0.0,4.0,77,0.00,,OVC240,0.00,VWS V14.01,2013-07-12 08:26:00,
2013-07-12 04:31:00,73.4,65.8,29.88,NE,37,0.0,0.0,78,0.00,,OVC240,0.00,VWS V14.01,2013-07-12 08:31:00,
2013-07-12 04:36:00,73.4,66.1,29.89,SE,138,0.0,6.0,78,0.00,,OVC240,0.00,VWS V14.01,2013-07-12 08:36:00,
2013-07-12 04:41:00,73.4,66.1,29.88,SE,126,0.0,0.0,78,0.00,,OVC240,0.00,VWS V14.01,2013-07-12 08:41:00,
2013-07-12 04:46:00,73.4,66.1,29.89,ENE,65,0.0,4.0,78,0.00,,OVC240,0.00,VWS V14.01,2013-07-12 08:46:00,
2013-07-12 04:51:00,73.4,66.1,29.89,NE,50,0.0,3.0,78,0.00,,OVC240,0.00,VWS V14.01,2013-07-12 08:51:00,
2013-07-12 04:56:00,73.3,66.1,29.89,ENE,66,0.0,3.0,78,0.00,,OVC240,0.00,VWS V14.01,2013-07-12 08:56:00,
2013-07-12 05:01:00,73.3,66.0,29.89,ENE,66,0.0,0.0,78,0.00,,OVC240,0.00,VWS V14.01,2013-07-12 09:01:00,
2013-07-12 05:06:00,73.3,66.0,29.89,ENE,66,0.0,1.0,78,0.00,,OVC240,0.00,VWS V14.01,2013-07-12 09:06:00,
2013-07-12 05:11:00,73.3,66.0,29.89,SE,140,0.0,0.0,78,0.00,,OVC240,0.00,VWS V14.01,2013-07-12 09:11:00,
2013-07-12 05:16:00,73.2,66.3,29.90,NE,48,0.0,3.0,79,0.00,,OVC240,0.00,VWS V14.01,2013-07-12 09:16:00,
2013-07-12 05:21:00,73.2,65.9,29.89,NE,53,0.0,0.0,78,0.00,,OVC240,0.00,VWS V14.01,2013-07-12 09:21:00,
2013-07-12 05:26:00,73.2,66.3,29.89,NNE,19,0.0,5.0,79,0.00,,OVC240,0.00,VWS V14.01,2013-07-12 09:26:00,
2013-07-12 05:31:00,73.2,66.2,29.89,East,89,0.0,0.0,79,0.00,,OVC240,0.00,VWS V14.01,2013-07-12 09:31:00,
2013-07-12 05:36:00,73.1,66.1,29.90,ENE,69,0.0,5.0,79,0.00,,OVC240,0.00,VWS V14.01,2013-07-12 09:36:00,
2013-07-12 05:41:00,73.0,66.1,29.90,East,90,0.0,1.0,79,0.00,,OVC240,0.00,VWS V14.01,2013-07-12 09:41:00,
2013-07-12 05:46:00,73.0,66.1,29.90,ENE,68,0.0,3.0,79,0.00,,OVC240,0.00,VWS V14.01,2013-07-12 09:46:00,
2013-07-12 05:51:00,72.9,66.0,29.89,ENE,62,0.0,1.0,79,0.00,,OVC240,0.00,VWS V14.01,2013-07-12 09:51:00,
2013-07-12 05:56:00,72.9,66.0,29.90,ENE,63,0.0,4.0,79,0.00,,OVC240,0.00,VWS V14.01,2013-07-12 09:56:00,
2013-07-12 06:01:00,72.8,65.9,29.91,ESE,110,0.0,0.0,79,0.00,,OVC240,0.00,VWS V14.01,2013-07-12 10:01:00,
2013-07-12 06:06:00,72.9,65.9,29.91,ENE,78,0.0,8.0,79,0.00,,OVC240,0.00,VWS V14.01,2013-07-12 10:06:00,
2013-07-12 06:11:00,72.8,66.3,29.91,ENE,77,0.0,1.0,80,0.00,,OVC240,0.00,VWS V14.01,2013-07-12 10:11:00,
2013-07-12 06:16:00,72.9,66.0,29.91,ENE,64,0.0,6.0,79,0.00,,OVC240,0.00,VWS V14.01,2013-07-12 10:16:00,
2013-07-12 06:21:00,72.8,65.9,29.92,NNE,24,0.0,0.0,79,0.00,,OVC240,0.00,VWS V14.01,2013-07-12 10:21:00,
2013-07-12 06:26:00,72.8,65.9,29.91,NE,45,2.0,7.0,79,0.00,,OVC240,0.00,VWS V14.01,2013-07-12 10:26:00,
2013-07-12 06:31:00,72.8,65.9,29.91,East,100,2.0,4.0,79,0.00,,OVC240,0.00,VWS V14.01,2013-07-12 10:31:00,
2013-07-12 06:36:00,72.7,65.8,29.92,ENE,58,0.0,6.0,79,0.00,,OVC240,0.00,VWS V14.01,2013-07-12 10:36:00,
2013-07-12 06:41:00,72.7,65.8,29.92,ENE,61,0.0,0.0,79,0.00,,OVC240,0.00,VWS V14.01,2013-07-12 10:41:00,
2013-07-12 06:46:00,72.7,65.8,29.93,ENE,63,0.0,3.0,79,0.00,,OVC240,0.00,VWS V14.01,2013-07-12 10:46:00,
2013-07-12 06:51:00,72.7,65.8,29.92,ESE,122,0.0,0.0,79,0.00,,OVC240,0.00,VWS V14.01,2013-07-12 10:51:00,
2013-07-12 06:56:00,72.7,65.8,29.92,East,79,0.0,5.0,79,0.00,,OVC240,0.00,VWS V14.01,2013-07-12 10:56:00,
2013-07-12 07:01:00,72.7,65.8,29.93,ENE,57,0.0,4.0,79,0.00,,BKN230,0.00,VWS V14.01,2013-07-12 11:01:00,
2013-07-12 07:06:00,72.6,65.7,29.93,NE,50,0.0,4.0,79,0.00,,BKN230,0.00,VWS V14.01,2013-07-12 11:06:00,
2013-07-12 07:11:00,72.5,65.6,29.93,ENE,76,0.0,4.0,79,0.00,,BKN230,0.00,VWS V14.01,2013-07-12 11:11:00,
2013-07-12 07:16:00,72.5,65.6,29.92,ENE,59,0.0,5.0,79,0.00,,BKN230,0.00,VWS V14.01,2013-07-12 11:16:00,
2013-07-12 07:21:00,72.4,65.5,29.92,ESE,114,0.0,5.0,79,0.00,,BKN230,0.00,VWS V14.01,2013-07-12 11:21:00,
2013-07-12 07:26:00,72.4,65.5,29.92,NE,47,3.0,6.0,79,0.00,,BKN230,0.00,VWS V14.01,2013-07-12 11:26:00,
2013-07-12 07:31:00,72.3,65.4,29.92,ENE,63,0.0,1.0,79,0.00,,BKN230,0.00,VWS V14.01,2013-07-12 11:31:00,
2013-07-12 07:36:00,72.2,65.4,29.93,ENE,71,0.0,7.0,79,0.00,,BKN230,0.00,VWS V14.01,2013-07-12 11:36:00,
2013-07-12 07:41:00,72.3,65.4,29.93,ENE,67,6.0,6.0,79,0.00,,BKN230,0.00,VWS V14.01,2013-07-12 11:41:00,
2013-07-12 07:46:00,72.2,65.3,29.93,NE,41,1.0,6.0,79,0.00,,BKN230,0.00,VWS V14.01,2013-07-12 11:46:00,
2013-07-12 07:51:00,72.2,65.8,29.93,NE,51,4.0,4.0,80,0.00,,BKN230,0.00,VWS V14.01,2013-07-12 11:51:00,
2013-07-12 07:56:00,72.4,65.9,29.93,NNE,24,0.0,7.0,80,0.00,,BKN230,0.00,VWS V14.01,2013-07-12 11:56:00,
2013-07-12 08:01:00,72.5,66.0,29.93,NE,53,0.0,0.0,80,0.00,,BKN230,0.00,VWS V14.01,2013-07-12 12:01:00,
2013-07-12 08:06:00,72.6,66.1,29.93,SE,132,0.0,6.0,80,0.00,,BKN230,0.00,VWS V14.01,2013-07-12 12:06:00,
2013-07-12 08:11:00,72.7,66.2,29.93,NE,54,0.0,1.0,80,0.00,,BKN230,0.00,VWS V14.01,2013-07-12 12:11:00,
2013-07-12 08:16:00,72.9,66.4,29.93,NE,39,0.0,7.0,80,0.00,,BKN230,0.00,VWS V14.01,2013-07-12 12:16:00,
2013-07-12 08:21:00,73.1,66.6,29.93,North,351,0.0,2.0,80,0.00,,BKN230,0.00,VWS V14.01,2013-07-12 12:21:00,
2013-07-12 08:26:00,73.4,66.6,29.93,SW,230,0.0,5.0,79,0.00,,BKN230,0.00,VWS V14.01,2013-07-12 12:26:00,
2013-07-12 08:31:00,73.7,66.8,29.94,ESE,103,0.0,5.0,79,0.00,,BKN230,0.00,VWS V14.01,2013-07-12 12:31:00,
2013-07-12 08:36:00,74.0,67.2,29.93,South,183,0.0,8.0,79,0.00,,BKN230,0.00,VWS V14.01,2013-07-12 12:36:00,
2013-07-12 08:41:00,74.4,67.2,29.94,West,277,0.0,1.0,78,0.00,,BKN230,0.00,VWS V14.01,2013-07-12 12:41:00,
2013-07-12 08:46:00,74.9,67.6,29.93,SSW,213,0.0,9.0,78,0.00,,BKN230,0.00,VWS V14.01,2013-07-12 12:46:00,
2013-07-12 08:51:00,75.2,67.5,29.93,SSE,163,0.0,4.0,77,0.00,,BKN230,0.00,VWS V14.01,2013-07-12 12:51:00,
2013-07-12 08:56:00,75.2,67.5,29.94,ESE,106,0.0,4.0,77,0.00,,BKN230,0.00,VWS V14.01,2013-07-12 12:56:00,
2013-07-12 09:01:00,75.3,67.6,29.94,SSE,147,0.0,4.0,77,0.00,,BKN280,0.00,VWS V14.01,2013-07-12 13:01:00,
2013-07-12 09:06:00,75.1,67.4,29.95,SE,135,0.0,6.0,77,0.00,,BKN280,0.00,VWS V14.01,2013-07-12 13:06:00,
2013-07-12 09:11:00,74.7,67.4,29.95,NE,47,0.0,2.0,78,0.00,,BKN280,0.00,VWS V14.01,2013-07-12 13:11:00,
2013-07-12 09:16:00,74.6,67.4,29.95,SE,128,0.0,6.0,78,0.00,,BKN280,0.00,VWS V14.01,2013-07-12 13:16:00,
2013-07-12 09:21:00,74.8,67.5,29.95,East,97,0.0,0.0,78,0.00,,BKN280,0.00,VWS V14.01,2013-07-12 13:21:00,
2013-07-12 09:26:00,75.1,67.4,29.95,NNE,19,0.0,11.0,77,0.00,,BKN280,0.00,VWS V14.01,2013-07-12 13:26:00,
2013-07-12 09:31:00,75.7,68.4,29.94,ENE,64,0.0,1.0,78,0.00,,BKN280,0.00,VWS V14.01,2013-07-12 13:31:00,
2013-07-12 09:36:00,76.2,68.5,29.94,East,93,3.0,5.0,77,0.00,,BKN280,0.00,VWS V14.01,2013-07-12 13:36:00,
2013-07-12 09:41:00,76.2,68.5,29.95,SSE,161,0.0,4.0,76,0.00,,BKN280,0.00,VWS V14.01,2013-07-12 13:41:00,
2013-07-12 09:46:00,75.9,68.2,29.95,South,184,0.0,4.0,77,0.00,,BKN280,0.00,VWS V14.01,2013-07-12 13:46:00,
2013-07-12 09:51:00,75.7,68.4,29.95,ENE,61,0.0,0.0,77,0.00,,BKN280,0.00,VWS V14.01,2013-07-12 13:51:00,
2013-07-12 09:56:00,75.8,68.1,29.95,West,268,0.0,10.0,77,0.00,,BKN280,0.00,VWS V14.01,2013-07-12 13:56:00,
2013-07-12 10:01:00,75.8,68.1,29.95,SSE,148,0.0,3.0,77,0.00,,BKN230,0.00,VWS V14.01,2013-07-12 14:01:00,
2013-07-12 10:06:00,75.8,68.1,29.95,SSE,152,0.0,4.0,77,0.00,,BKN230,0.00,VWS V14.01,2013-07-12 14:06:00,
2013-07-12 10:11:00,75.6,67.9,29.96,SSE,159,0.0,4.0,77,0.00,,BKN230,0.00,VWS V14.01,2013-07-12 14:11:00,
2013-07-12 10:16:00,75.4,68.1,29.96,ENE,64,5.0,7.0,78,0.00,,BKN230,0.00,VWS V14.01,2013-07-12 14:16:00,
2013-07-12 10:21:00,75.3,67.9,29.96,East,81,0.0,4.0,78,0.00,,BKN230,0.00,VWS V14.01,2013-07-12 14:21:00,
2013-07-12 10:26:00,75.2,67.9,29.96,SE,133,3.0,9.0,78,0.00,,BKN230,0.00,VWS V14.01,2013-07-12 14:26:00,
2013-07-12 10:31:00,75.1,68.2,29.97,NE,56,0.0,3.0,79,0.00,,BKN230,0.00,VWS V14.01,2013-07-12 14:31:00,
2013-07-12 10:36:00,75.2,68.2,29.96,SSE,148,0.0,7.0,79,0.00,,BKN230,0.00,VWS V14.01,2013-07-12 14:36:00,
2013-07-12 10:41:00,75.1,68.2,29.97,SE,134,0.0,1.0,79,0.00,,BKN230,0.00,VWS V14.01,2013-07-12 14:41:00,
2013-07-12 10:46:00,75.3,68.3,29.96,SE,140,3.0,3.0,79,0.00,,BKN230,0.00,VWS V14.01,2013-07-12 14:46:00,
2013-07-12 10:51:00,75.6,68.6,29.96,NE,49,0.0,4.0,79,0.00,,BKN230,0.00,VWS V14.01,2013-07-12 14:51:00,
2013-07-12 10:56:00,75.7,68.4,29.96,NE,34,1.0,7.0,78,0.00,,BKN230,0.00,VWS V14.01,2013-07-12 14:56:00,
2013-07-12 11:01:00,75.7,68.4,29.96,SSE,155,0.0,1.0,78,0.00,,BKN240,0.00,VWS V14.01,2013-07-12 15:01:00,
2013-07-12 11:06:00,75.9,68.6,29.96,SE,130,0.0,7.0,78,0.00,,BKN240,0.00,VWS V14.01,2013-07-12 15:06:00,
2013-07-12 11:11:00,75.9,68.6,29.96,East,85,0.0,1.0,78,0.00,,BKN240,0.00,VWS V14.01,2013-07-12 15:11:00,
2013-07-12 11:16:00,75.7,68.4,29.97,West,261,0.0,7.0,78,0.00,,BKN240,0.00,VWS V14.01,2013-07-12 15:16:00,
2013-07-12 11:21:00,75.6,68.3,29.97,North,349,0.0,0.0,78,0.00,,BKN240,0.00,VWS V14.01,2013-07-12 15:21:00,
2013-07-12 11:26:00,75.4,68.4,29.96,SSE,154,0.0,11.0,79,0.00,,BKN240,0.00,VWS V14.01,2013-07-12 15:26:00,
2013-07-12 11:31:00,75.4,68.4,29.97,West,267,0.0,1.0,79,0.00,,BKN240,0.00,VWS V14.01,2013-07-12 15:31:00,
2013-07-12 11:36:00,75.1,68.5,29.97,East,100,0.0,4.0,80,0.00,,BKN240,0.00,VWS V14.01,2013-07-12 15:36:00,
2013-07-12 11:41:00,75.1,68.5,29.96,ESE,106,0.0,1.0,80,0.00,,BKN240,0.00,VWS V14.01,2013-07-12 15:41:00,
2013-07-12 11:46:00,75.0,68.4,29.97,NE,50,0.0,5.0,80,0.00,,BKN240,0.00,VWS V14.01,2013-07-12 15:46:00,
2013-07-12 11:51:00,75.0,68.8,29.97,ENE,71,8.0,8.0,81,0.00,,BKN240,0.00,VWS V14.01,2013-07-12 15:51:00,
2013-07-12 11:56:00,74.9,68.7,29.97,SSE,157,0.0,8.0,81,0.00,,BKN240,0.00,VWS V14.01,2013-07-12 15:56:00,
2013-07-12 12:01:00,74.9,68.7,29.96,SSE,161,0.0,9.0,81,0.00,,OVC180,0.00,VWS V14.01,2013-07-12 16:01:00,
2013-07-12 12:06:00,75.1,68.9,29.97,South,170,0.0,9.0,81,0.00,,OVC180,0.00,VWS V14.01,2013-07-12 16:06:00,
2013-07-12 12:11:00,75.0,68.8,29.97,ESE,118,0.0,1.0,81,0.00,,OVC180,0.00,VWS V14.01,2013-07-12 16:11:00,
2013-07-12 12:16:00,75.0,68.8,29.97,East,91,0.0,2.0,81,0.00,,OVC180,0.00,VWS V14.01,2013-07-12 16:16:00,
2013-07-12 12:21:00,74.9,68.7,29.97,NNE,30,0.0,3.0,81,0.00,,OVC180,0.00,VWS V14.01,2013-07-12 16:21:00,
2013-07-12 12:26:00,75.1,68.9,29.97,East,83,0.0,3.0,81,0.00,,OVC180,0.00,VWS V14.01,2013-07-12 16:26:00,
2013-07-12 12:31:00,75.0,68.8,29.97,SSE,168,0.0,6.0,81,0.00,,OVC180,0.00,VWS V14.01,2013-07-12 16:31:00,
2013-07-12 12:36:00,75.1,68.9,29.97,North,354,0.0,6.0,81,0.00,,OVC180,0.00,VWS V14.01,2013-07-12 16:36:00,
2013-07-12 12:41:00,75.1,68.9,29.97,SE,139,0.0,0.0,81,0.00,,OVC180,0.00,VWS V14.01,2013-07-12 16:41:00,
2013-07-12 12:46:00,75.2,68.9,29.97,ESE,103,0.0,9.0,81,0.00,,OVC180,0.00,VWS V14.01,2013-07-12 16:46:00,
2013-07-12 12:51:00,75.2,69.0,29.97,NE,37,0.0,3.0,81,0.00,,OVC180,0.00,VWS V14.01,2013-07-12 16:51:00,
2013-07-12 12:56:00,75.1,68.9,29.97,ENE,57,5.0,6.0,81,0.00,,OVC180,0.00,VWS V14.01,2013-07-12 16:56:00,
2013-07-12 13:01:00,75.1,68.9,29.97,SE,134,0.0,6.0,81,0.00,,OVC160,0.00,VWS V14.01,2013-07-12 17:01:00,
2013-07-12 13:06:00,75.1,68.9,29.97,NNE,24,0.0,9.0,81,0.00,,OVC160,0.00,VWS V14.01,2013-07-12 17:06:00,
2013-07-12 13:11:00,75.3,69.1,29.97,ENE,59,0.0,7.0,81,0.00,,OVC160,0.00,VWS V14.01,2013-07-12 17:11:00,
2013-07-12 13:16:00,75.4,69.2,29.97,ENE,58,7.0,8.0,81,0.00,,OVC160,0.00,VWS V14.01,2013-07-12 17:16:00,
2013-07-12 13:21:00,75.4,69.2,29.97,North,0,0.0,0.0,81,0.00,,OVC160,0.00,VWS V14.01,2013-07-12 17:21:00,
2013-07-12 13:26:00,75.5,69.3,29.98,SSE,154,0.0,6.0,81,0.00,,OVC160,0.00,VWS V14.01,2013-07-12 17:26:00,
2013-07-12 13:31:00,75.5,69.3,29.97,South,187,0.0,4.0,81,0.00,,OVC160,0.00,VWS V14.01,2013-07-12 17:31:00,
2013-07-12 13:36:00,75.3,69.2,29.97,SSE,164,0.0,8.0,81,0.00,,OVC160,0.00,VWS V14.01,2013-07-12 17:36:00,
2013-07-12 13:41:00,75.5,69.3,29.97,East,88,0.0,2.0,81,0.00,,OVC160,0.00,VWS V14.01,2013-07-12 17:41:00,
2013-07-12 13:47:00,75.6,69.4,29.97,ENE,72,0.0,13.0,81,0.00,,OVC160,0.00,VWS V14.01,2013-07-12 17:47:00,
2013-07-12 13:52:00,75.8,69.6,29.97,NE,53,0.0,4.0,81,0.00,,OVC160,0.00,VWS V14.01,2013-07-12 17:52:00,
2013-07-12 13:57:00,75.6,69.7,29.97,NE,52,0.0,5.0,82,0.00,,OVC160,0.00,VWS V14.01,2013-07-12 17:57:00,
2013-07-12 14:02:00,75.6,69.8,29.97,SE,140,1.0,4.0,82,0.00,,-RA,0.00,VWS V14.01,2013-07-12 18:02:00,
2013-07-12 14:07:00,75.5,69.6,29.96,NE,47,0.0,8.0,82,0.00,,-RA,0.00,VWS V14.01,2013-07-12 18:07:00,
2013-07-12 14:12:00,75.6,70.1,29.96,ENE,68,4.0,9.0,83,0.00,,-RA,0.00,VWS V14.01,2013-07-12 18:12:00,
2013-07-12 14:17:00,75.6,70.1,29.96,East,95,0.0,9.0,83,0.00,,-RA,0.00,VWS V14.01,2013-07-12 18:17:00,
2013-07-12 14:22:00,75.4,70.2,29.96,ESE,108,3.0,6.0,83,0.00,,-RA,0.00,VWS V14.01,2013-07-12 18:22:00,
2013-07-12 14:27:00,75.3,70.1,29.97,NE,34,0.0,8.0,84,0.00,,-RA,0.00,VWS V14.01,2013-07-12 18:27:00,
2013-07-12 14:32:00,75.1,70.3,29.97,East,80,0.0,3.0,85,0.00,,-RA,0.39,VWS V14.01,2013-07-12 18:32:00,
2013-07-12 14:37:00,75.1,70.3,29.97,NE,50,0.0,6.0,85,0.00,,-RA,0.00,VWS V14.01,2013-07-12 18:37:00,
2013-07-12 14:43:00,75.1,69.9,29.97,SE,142,0.0,1.0,84,0.00,,-RA,0.00,VWS V14.01,2013-07-12 18:43:00,
2013-07-12 14:48:00,75.0,69.5,29.97,NE,44,0.0,8.0,83,0.00,,-RA,0.00,VWS V14.01,2013-07-12 18:48:00,
2013-07-12 14:53:00,74.8,69.0,29.97,NNE,33,0.0,9.0,82,0.00,,-RA,0.00,VWS V14.01,2013-07-12 18:53:00,
2013-07-12 14:58:00,74.8,68.9,29.97,ENE,67,0.0,9.0,82,0.00,,-RA,0.00,VWS V14.01,2013-07-12 18:58:00,
2013-07-12 15:03:00,74.7,69.2,29.97,East,93,0.0,2.0,83,0.00,,-RA,0.00,VWS V14.01,2013-07-12 19:03:00,
2013-07-12 15:08:00,74.8,69.3,29.97,ENE,60,0.0,6.0,83,0.00,,-RA,0.00,VWS V14.01,2013-07-12 19:08:00,
2013-07-12 15:13:00,74.9,69.4,29.96,NE,55,4.0,4.0,83,0.00,,-RA,0.00,VWS V14.01,2013-07-12 19:13:00,
2013-07-12 15:18:00,75.0,69.5,29.97,NNE,23,0.0,4.0,83,0.00,,-RA,0.00,VWS V14.01,2013-07-12 19:18:00,
2013-07-12 15:23:00,75.2,69.7,29.96,SSW,198,0.0,3.0,83,0.00,,-RA,0.00,VWS V14.01,2013-07-12 19:23:00,
2013-07-12 15:28:00,75.2,69.7,29.96,North,4,2.0,6.0,83,0.00,,-RA,0.00,VWS V14.01,2013-07-12 19:28:00,
2013-07-12 15:33:00,75.3,69.8,29.96,SSE,162,0.0,4.0,83,0.00,,-RA,0.00,VWS V14.01,2013-07-12 19:33:00,
2013-07-12 15:38:00,75.4,70.2,29.96,East,82,1.0,7.0,84,0.00,,-RA,0.00,VWS V14.01,2013-07-12 19:38:00,
2013-07-12 15:43:00,75.5,70.0,29.97,NE,46,0.0,9.0,83,0.00,,-RA,0.00,VWS V14.01,2013-07-12 19:43:00,
2013-07-12 15:48:00,75.3,70.1,29.96,East,99,0.0,9.0,84,0.00,,-RA,0.00,VWS V14.01,2013-07-12 19:48:00,
2013-07-12 15:54:00,75.3,69.8,29.96,ENE,77,2.0,6.0,83,0.00,,-RA,0.00,VWS V14.01,2013-07-12 19:54:00,
2013-07-12 15:59:00,75.2,69.7,29.95,ESE,108,2.0,7.0,83,0.00,,-RA,0.00,VWS V14.01,2013-07-12 19:59:00,
2013-07-12 16:04:00,75.2,69.7,29.96,ENE,61,0.0,4.0,83,0.00,,OVC038,0.00,VWS V14.01,2013-07-12 20:04:00,
2013-07-12 16:09:00,75.2,69.7,29.96,East,87,0.0,4.0,83,0.00,,OVC038,0.00,VWS V14.01,2013-07-12 20:09:00,
2013-07-12 16:14:00,75.4,70.2,29.96,East,89,0.0,2.0,84,0.00,,OVC038,0.00,VWS V14.01,2013-07-12 20:14:00,
2013-07-12 16:19:00,75.3,69.8,29.96,East,101,0.0,2.0,83,0.00,,OVC038,0.00,VWS V14.01,2013-07-12 20:19:00,
2013-07-12 16:24:00,75.3,69.8,29.96,ENE,75,0.0,5.0,83,0.00,,OVC038,0.00,VWS V14.01,2013-07-12 20:24:00,
2013-07-12 16:29:00,75.4,69.9,29.96,SSE,157,0.0,8.0,83,0.00,,OVC038,0.00,VWS V14.01,2013-07-12 20:29:00,
2013-07-12 16:34:00,75.5,70.3,29.96,East,98,0.0,2.0,84,0.00,,OVC038,0.00,VWS V14.01,2013-07-12 20:34:00,
2013-07-12 16:39:00,75.4,70.3,29.96,ESE,112,0.0,2.0,84,0.00,,OVC038,0.00,VWS V14.01,2013-07-12 20:39:00,
2013-07-12 16:44:00,75.5,70.0,29.96,SSE,156,0.0,4.0,83,0.00,,OVC038,0.00,VWS V14.01,2013-07-12 20:44:00,
2013-07-12 16:49:00,75.5,70.0,29.97,South,187,0.0,12.0,83,0.00,,OVC038,0.00,VWS V14.01,2013-07-12 20:49:00,
2013-07-12 16:54:00,75.4,69.9,29.96,SSE,150,0.0,3.0,83,0.00,,OVC038,0.00,VWS V14.01,2013-07-12 20:54:00,
2013-07-12 16:59:00,75.4,70.2,29.97,SSE,152,0.0,8.0,84,0.00,,OVC038,0.00,VWS V14.01,2013-07-12 20:59:00,
2013-07-12 17:05:00,75.4,70.2,29.97,SSE,153,0.0,5.0,84,0.00,,-RA,0.00,VWS V14.01,2013-07-12 21:05:00,
2013-07-12 17:10:00,75.4,69.9,29.97,SSE,159,0.0,9.0,83,0.00,,-RA,0.00,VWS V14.01,2013-07-12 21:10:00,
2013-07-12 17:15:00,75.3,70.0,29.96,SSE,162,0.0,4.0,84,0.00,,-RA,0.00,VWS V14.01,2013-07-12 21:15:00,
2013-07-12 17:20:00,75.2,70.4,29.97,SSE,157,3.0,9.0,85,0.00,,-RA,0.00,VWS V14.01,2013-07-12 21:20:00,
2013-07-12 17:25:00,75.1,70.6,29.97,SE,144,0.0,5.0,86,0.00,,-RA,0.00,VWS V14.01,2013-07-12 21:25:00,
2013-07-12 17:30:00,74.9,70.4,29.97,ESE,104,0.0,0.0,86,0.00,,-RA,0.00,VWS V14.01,2013-07-12 21:30:00,
2013-07-12 17:35:00,74.8,70.3,29.97,SE,137,1.0,4.0,86,0.00,,-RA,0.00,VWS V14.01,2013-07-12 21:35:00,
2013-07-12 17:40:00,74.8,70.7,29.97,SSE,157,5.0,5.0,87,0.00,,-RA,0.00,VWS V14.01,2013-07-12 21:40:00,
2013-07-12 17:45:00,74.6,70.8,29.97,SE,146,3.0,8.0,88,0.00,,-RA,0.00,VWS V14.01,2013-07-12 21:45:00,
2013-07-12 17:50:00,74.4,71.1,29.97,SSE,159,4.0,4.0,88,0.00,,-RA,0.39,VWS V14.01,2013-07-12 21:50:00,
2013-07-12 17:55:00,74.3,70.8,29.97,SSE,152,1.0,6.0,89,0.00,,-RA,0.00,VWS V14.01,2013-07-12 21:55:00,
2013-07-12 18:01:00,74.1,71.0,29.97,SE,135,0.0,0.0,90,0.00,,-RA,0.00,VWS V14.01,2013-07-12 22:01:00,
2013-07-12 18:06:00,74.0,71.2,29.97,SE,135,0.0,1.0,91,0.00,,-RA,0.00,VWS V14.01,2013-07-12 22:06:00,
2013-07-12 18:11:00,73.9,71.1,29.98,SE,135,0.0,2.0,91,0.00,,-RA,0.00,VWS V14.01,2013-07-12 22:11:00,
2013-07-12 18:16:00,73.8,71.0,29.98,SE,143,4.0,5.0,91,0.00,,-RA,0.00,VWS V14.01,2013-07-12 22:16:00,
2013-07-12 18:21:00,73.8,71.0,29.98,SE,138,5.0,5.0,91,0.00,,-RA,0.00,VWS V14.01,2013-07-12 22:21:00,
2013-07-12 18:26:00,73.7,70.9,29.98,SE,143,0.0,5.0,91,0.00,,-RA,0.00,VWS V14.01,2013-07-12 22:26:00,
2013-07-12 18:31:00,73.5,70.7,29.98,SE,141,0.0,0.0,91,0.00,,-RA,0.00,VWS V14.01,2013-07-12 22:31:00,
2013-07-12 18:36:00,73.4,70.9,29.99,SE,140,0.0,1.0,92,0.01,,-RA,0.01,VWS V14.01,2013-07-12 22:36:00,
2013-07-12 18:41:00,73.4,70.9,29.98,SSE,153,0.0,5.0,92,0.01,,-RA,0.01,VWS V14.01,2013-07-12 22:41:00,
2013-07-12 18:46:00,73.1,70.6,29.98,ESE,122,0.0,7.0,92,0.01,,-RA,0.01,VWS V14.01,2013-07-12 22:46:00,
2013-07-12 18:51:00,72.9,70.4,29.99,SSE,149,0.0,8.0,92,0.01,,-RA,0.01,VWS V14.01,2013-07-12 22:51:00,
2013-07-12 18:56:00,72.7,70.2,29.98,ESE,109,0.0,8.0,92,0.01,,-RA,0.01,VWS V14.01,2013-07-12 22:56:00,
2013-07-12 19:01:00,72.6,70.5,29.98,SE,144,0.0,4.0,93,0.01,,-RA,0.01,VWS V14.01,2013-07-12 23:01:00,
2013-07-12 19:07:00,72.5,70.4,29.99,SSE,147,0.0,6.0,93,0.02,,-RA,0.02,VWS V14.01,2013-07-12 23:07:00,
2013-07-12 19:12:00,72.4,70.2,29.98,SSE,147,0.0,0.0,93,0.02,,-RA,0.02,VWS V14.01,2013-07-12 23:12:00,
2013-07-12 19:17:00,72.2,70.1,29.99,SE,137,0.0,8.0,93,0.03,,-RA,0.03,VWS V14.01,2013-07-12 23:17:00,
2013-07-12 19:22:00,71.9,69.8,29.99,SE,144,1.0,5.0,93,0.03,,-RA,0.03,VWS V14.01,2013-07-12 23:22:00,
2013-07-12 19:27:00,71.7,69.9,29.99,SE,146,0.0,5.0,94,0.03,,-RA,0.03,VWS V14.01,2013-07-12 23:27:00,
2013-07-12 19:32:00,71.6,69.8,29.99,NNE,25,0.0,3.0,94,0.04,,-RA,0.04,VWS V14.01,2013-07-12 23:32:00,
2013-07-12 19:37:00,71.5,69.7,29.99,SSE,148,0.0,4.0,94,0.04,,-RA,0.04,VWS V14.01,2013-07-12 23:37:00,
2013-07-12 19:42:00,71.4,69.6,29.99,SSE,154,6.0,7.0,94,0.04,,-RA,0.05,VWS V14.01,2013-07-12 23:42:00,
2013-07-12 19:47:00,71.2,69.7,29.99,SSE,152,0.0,7.0,94,0.04,,-RA,0.05,VWS V14.01,2013-07-12 23:47:00,
2013-07-12 19:52:00,71.0,69.2,30.00,SSE,163,0.0,1.0,94,0.04,,-RA,0.05,VWS V14.01,2013-07-12 23:52:00,
2013-07-12 19:57:00,70.9,69.4,30.00,SSE,152,0.0,8.0,95,0.05,,-RA,0.06,VWS V14.01,2013-07-12 23:57:00,
2013-07-12 20:03:00,70.7,69.5,30.00,SSE,155,0.0,3.0,96,0.05,,-RA,0.06,VWS V14.01,2013-07-13 00:03:00,
2013-07-12 20:08:00,70.7,69.5,30.00,SSE,155,0.0,3.0,96,0.06,,-RA,0.07,VWS V14.01,2013-07-13 00:08:00,
2013-07-12 20:13:00,70.2,69.0,29.99,East,99,0.0,2.0,96,0.05,,-RA,0.07,VWS V14.01,2013-07-13 00:13:00,
2013-07-12 20:18:00,70.5,69.3,30.00,ENE,63,0.0,5.0,96,0.06,,-RA,0.08,VWS V14.01,2013-07-13 00:18:00,
2013-07-12 20:23:00,70.4,69.2,30.00,NW,320,0.0,1.0,96,0.05,,-RA,0.08,VWS V14.01,2013-07-13 00:23:00,
2013-07-12 20:28:00,70.3,69.4,30.00,SE,140,0.0,6.0,96,0.06,,-RA,0.09,VWS V14.01,2013-07-13 00:28:00,
2013-07-12 20:33:00,70.2,69.3,30.00,SSE,166,0.0,9.0,97,0.05,,-RA,0.09,VWS V14.01,2013-07-13 00:33:00,
2013-07-12 20:38:00,70.0,69.1,30.00,NE,40,0.0,9.0,97,0.05,,-RA,0.09,VWS V14.01,2013-07-13 00:38:00,
2013-07-12 20:43:00,69.9,69.0,30.00,ENE,68,0.0,1.0,97,0.06,,-RA,0.10,VWS V14.01,2013-07-13 00:43:00,
2013-07-12 20:48:00,69.9,69.0,30.00,ESE,103,0.0,5.0,97,0.06,,-RA,0.10,VWS V14.01,2013-07-13 00:48:00,
2013-07-12 20:53:00,69.7,68.8,30.00,NE,48,1.0,2.0,97,0.06,,-RA,0.11,VWS V14.01,2013-07-13 00:53:00,
2013-07-12 20:58:00,69.6,68.7,30.00,North,0,0.0,2.0,97,0.06,,-RA,0.11,VWS V14.01,2013-07-13 00:58:00,
2013-07-12 21:03:00,69.6,68.7,30.00,North,4,0.0,2.0,97,0.05,,-RA,0.11,VWS V14.01,2013-07-13 01:03:00,
2013-07-12 21:08:00,69.6,68.7,30.01,NE,42,0.0,2.0,97,0.06,,-RA,0.12,VWS V14.01,2013-07-13 01:08:00,
2013-07-12 21:13:00,69.5,68.6,30.00,North,10,0.0,5.0,97,0.05,,-RA,0.12,VWS V14.01,2013-07-13 01:13:00,
2013-07-12 21:18:00,69.5,68.2,30.00,ESE,118,0.0,6.0,96,0.05,,-RA,0.12,VWS V14.01,2013-07-13 01:18:00,
2013-07-12 21:24:00,69.8,68.9,30.01,NE,41,6.0,6.0,97,0.05,,-RA,0.13,VWS V14.01,2013-07-13 01:24:00,
2013-07-12 21:29:00,69.4,68.5,30.01,East,98,0.0,6.0,97,0.05,,-RA,0.13,VWS V14.01,2013-07-13 01:29:00,
2013-07-12 21:34:00,69.4,68.5,30.02,ENE,58,0.0,9.0,97,0.04,,-RA,0.13,VWS V14.01,2013-07-13 01:34:00,
2013-07-12 21:39:00,69.5,68.6,30.02,ENE,58,8.0,10.0,97,0.04,,-RA,0.13,VWS V14.01,2013-07-13 01:39:00,
2013-07-12 21:44:00,69.5,68.6,30.03,NNE,24,0.0,6.0,97,0.04,,-RA,0.14,VWS V14.01,2013-07-13 01:44:00,
2013-07-12 21:49:00,69.2,68.3,30.01,SE,141,2.0,6.0,97,0.04,,-RA,0.14,VWS V14.01,2013-07-13 01:49:00,
2013-07-12 21:54:00,69.2,68.6,30.02,SSE,157,0.0,4.0,98,0.04,,-RA,0.14,VWS V14.01,2013-07-13 01:54:00,
2013-07-12 21:59:00,69.1,68.2,30.02,SE,143,0.0,4.0,97,0.05,,-RA,0.15,VWS V14.01,2013-07-13 01:59:00,
2013-07-12 22:04:00,69.0,68.1,30.01,SE,135,0.0,1.0,97,0.04,,-RA,0.15,VWS V14.01,2013-07-13 02:04:00,
2013-07-12 22:09:00,69.1,68.5,30.01,ENE,70,0.0,4.0,98,0.04,,-RA,0.15,VWS V14.01,2013-07-13 02:09:00,
2013-07-12 22:14:00,69.1,68.5,30.02,NE,46,0.0,1.0,98,0.03,,-RA,0.15,VWS V14.01,2013-07-13 02:14:00,
2013-07-12 22:20:00,68.7,68.1,30.02,SSE,154,0.0,3.0,98,0.04,,-RA,0.16,VWS V14.01,2013-07-13 02:20:00,
2013-07-12 22:25:00,69.0,68.1,30.02,SE,146,0.0,3.0,97,0.04,,-RA,0.16,VWS V14.01,2013-07-13 02:25:00,
2013-07-12 22:30:00,69.0,68.4,30.02,SE,140,0.0,4.0,98,0.04,,-RA,0.16,VWS V14.01,2013-07-13 02:30:00,
2013-07-12 22:35:00,68.9,68.3,30.02,East,94,0.0,1.0,98,0.03,,-RA,0.16,VWS V14.01,2013-07-13 02:35:00,
2013-07-12 22:40:00,68.7,68.1,30.01,ESE,105,4.0,4.0,98,0.03,,-RA,0.17,VWS V14.01,2013-07-13 02:40:00,
2013-07-12 22:45:00,68.7,68.1,30.02,SE,136,0.0,4.0,98,0.03,,-RA,0.17,VWS V14.01,2013-07-13 02:45:00,
2013-07-12 22:50:00,68.9,68.0,30.02,ENE,61,1.0,1.0,98,0.03,,-RA,0.17,VWS V14.01,2013-07-13 02:50:00,
2013-07-12 22:55:00,68.8,68.2,30.03,ENE,73,0.0,8.0,98,0.04,,-RA,0.18,VWS V14.01,2013-07-13 02:55:00,
2013-07-12 23:00:00,68.6,68.0,30.02,SE,130,0.0,2.0,98,0.03,,-RA,0.18,VWS V14.01,2013-07-13 03:00:00,
2013-07-12 23:05:00,68.9,68.3,30.02,SE,140,0.0,4.0,99,0.03,,-RA,0.18,VWS V14.01,2013-07-13 03:05:00,
2013-07-12 23:10:00,68.6,68.3,30.03,SE,142,0.0,0.0,98,0.04,,-RA,0.19,VWS V14.01,2013-07-13 03:10:00,
2013-07-12 23:15:00,68.5,67.9,30.03,SE,139,2.0,5.0,98,0.04,,-RA,0.19,VWS V14.01,2013-07-13 03:15:00,
2013-07-12 23:21:00,68.7,68.3,30.03,East,100,3.0,14.0,99,0.03,,-RA,0.19,VWS V14.01,2013-07-13 03:21:00,
2013-07-12 23:26:00,68.4,68.1,30.02,SSE,160,0.0,14.0,99,0.03,,-RA,0.19,VWS V14.01,2013-07-13 03:26:00,
2013-07-12 23:31:00,68.7,68.1,30.02,ESE,118,0.0,0.0,98,0.04,,-RA,0.20,VWS V14.01,2013-07-13 03:31:00,
2013-07-12 23:36:00,68.7,68.1,30.03,ESE,118,0.0,2.0,98,0.04,,-RA,0.20,VWS V14.01,2013-07-13 03:36:00,
2013-07-12 23:41:00,68.8,68.2,30.03,SE,138,0.0,2.0,98,0.03,,-RA,0.20,VWS V14.01,2013-07-13 03:41:00,
2013-07-12 23:46:00,68.7,68.1,30.03,SE,126,6.0,7.0,99,0.03,,-RA,0.20,VWS V14.01,2013-07-13 03:46:00,
2013-07-12 23:51:00,69.0,68.2,30.04,ESE,102,0.0,1.0,98,0.04,,-RA,0.21,VWS V14.01,2013-07-13 03:51:00,
2013-07-12 23:57:00,68.6,68.0,30.04,SSE,151,0.0,5.0,98,0.04,,-RA,0.21,VWS V14.01,2013-07-13 03:57:00,